Temperature
8 8 8 9 9 9 9 9 9 9 9 9 9 9 9 9 9 9 10 10 10 10 10 10 11 11 11 11 11 11 11 11 11 11 11 12 12 12 12 12 12 12 12
8 8 8 8 8 8 8 8 8 8 8 8 8 8 8 9 9 9 9 9 9 10 10 10 10 10 10 10 11 11 11 11 11 11 11 11 11 11 12 12 12 12 12
8 8 8 8 8 8 8 8 8 8 8 8 8 8 8 8 8 8 9 9 9 9 9 10 10 10 10 10 10 10 10 10 11 11 11 11 11 11 11 11 12 12 12
8 7 7 7 8 8 7 7 7 7 7 7 7 7 7 7 8 8 8 8 8 8 9 9 9 9 9 9 10 10 10 10 10 10 10 10 11 10 10 11 11 11 11
7 7 7 7 7 7 7 7 7 7 7 7 7 7 7 7 7 7 7 8 8 8 8 8 8 9 9 9 9 9 9 9 9 10 10 10 10 10 10 10 10 10 11
7 7 7 7 7 7 7 7 6 6 6 6 6 6 6 6 7 7 7 7 7 7 7 7 8 8 8 8 8 8 9 9 9 9 9 9 9 9 9 10 10 10 10
7 7 7 7 7 7 6 6 6 6 6 6 6 6 6 6 6 6 6 6 7 7 7 7 7 7 7 8 8 8 8 8 8 8 8 9 9 9 9 9 9 9 9
7 7 6 6 6 6 6 6 6 6 6 6 6 6 6 6 6 6 6 6 6 6 6 6 7 7 7 7 7 7 7 8 8 8 8 8 8 8 9 9 9 8 8
6 6 6 6 6 6 6 6 5 5 5 5 5 5 5 5 5 6 6 6 6 6 6 6 6 6 6 7 6 7 7 7 7 7 7 7 8 8 8 8 8 8 8
6 6 6 6 6 6 6 5 5 5 5 5 5 5 5 5 5 5 5 5 5 5 5 6 6 6 6 6 6 6 6 6 6 6 7 7 7 7 7 7 7 7 7
6 6 6 6 6 5 5 5 5 5 5 5 5 5 5 5 5 5 5 5 5 5 5 5 5 5 5 5 6 6 6 5 6 6 6 6 6 6 6 7 7 7 7
6 6 6 6 5 5 5 5 5 4 4 4 4 4 4 4 4 4 4 4 4 5 4 4 4 4 5 5 5 5 5 5 5 5 5 5 6 6 6 6 6 6 6
6 6 6 5 5 5 5 4 4 4 4 4 3 4 4 4 4 4 4 4 4 4 4 4 4 4 4 4 4 4 4 4 4 4 5 5 5 5 5 5 5 5 5
6 5 5 5 5 5 4 4 4 4 3 3 3 3 3 3 3 3 3 3 3 3 4 4 3 3 3 4 4 4 4 4 4 4 4 4 4 4 4 4 4 4 4
5 5 5 5 5 4 4 4 4 3 3 3 3 3 3 3 3 3 3 3 3 3 3 3 3 3 3 3 3 3 3 3 3 3 3 3 3 4 4 4 3 3 3
5 5 5 5 5 4 4 4 3 3 3 3 2 2 2 2 2 2 2 2 2 3 3 3 3 3 3 3 3 3 3 3 3 3 3 3 3 3 3 3 3 3 3
5 5 5 5 5 4 4 3 3 3 3 2 2 2 2 2 2 2 2 2 2 2 2 2 2 2 2 2 2 2 2 2 2 2 2 2 2 2 2 2 2 2 2
5 5 5 5 5 4 4 3 3 2 2 2 2 2 2 1 1 1 1 1 1 1 1 2 2 2 2 2 2 2 2 2 2 2 2 2 2 2 1 2 2 2 2
5 5 5 4 4 4 3 3 3 2 2 2 2 1 1 1 1 1 1 1 1 1 1 1 1 1 1 1 1 1 1 1 1 1 1 1 1 1 1 1 1 1 1
5 5 5 4 4 4 3 3 2 2 2 2 1 1 1 1 1 1 0 0 1 1 1 1 1 1 1 1 1 1 1 1 1 1 1 1 1 0 0 0 0 0 0
5 4 4 4 4 3 3 3 2 2 2 1 1 1 1 0 0 0 0 0 0 0 0 0 0 0 0 0 0 0 0 0 0 0 -0 -0 -0 -0 -0 -0 -0 -0 -1
4 4 4 4 3 3 3 3 2 2 1 1 1 1 0 0 0 0 0 0 0 0 -0 -0 -0 -0 -0 -0 -0 -0 -0 -0 -0 -0 -1 -1 -1 -1 -1 -1 -1 -1 -1
4 3 3 3 3 3 3 2 2 2 1 1 1 1 0 0 0 0 0 -0 -0 -0 -0 -0 -0 -1 -1 -1 -1 -1 -1 -1 -1 -1 -1 -1 -1 -1 -1 -1 -2 -2 -2
3 3 3 3 3 3 2 2 2 2 1 1 1 0 0 0 0 -0 -0 -0 -0 -0 -1 -1 -1 -1 -1 -1 -1 -1 -1 -2 -2 -2 -2 -2 -2 -2 -2 -2 -2 -2 -3
3 3 3 3 3 2 2 2 2 1 1 1 1 0 0 -0 -0 -0 -0 -1 -1 -1 -1 -1 -1 -1 -2 -2 -2 -2 -2 -2 -2 -2 -2 -3 -3 -3 -3 -3 -3 -3 -3
2 2 2 2 2 2 2 2 2 1 1 1 1 0 -0 -0 -1 -1 -1 -1 -1 -1 -1 -1 -2 -2 -2 -2 -2 -2 -3 -3 -3 -3 -3 -3 -3 -3 -3 -4 -4 -4 -4
Wind_Speed
3 2 1 2 3 4 5 6 7 7 6 5 5 5 5 5 4 4 5 5 5 5 5 5 6 6 7 8 8 8 8 7 7 6 6 7 8 8 8 8 8 9 10
4 2 2 2 3 4 5 6 6 7 6 6 6 5 6 5 5 4 5 5 5 5 4 5 5 6 6 7 7 7 7 6 6 5 5 5 6 7 8 8 8 9 8
5 4 3 3 4 4 5 5 6 7 7 7 5 5 5 4 4 4 4 5 5 5 5 5 5 5 6 6 7 7 8 7 6 6 5 5 6 4 6 9 8 8 8
5 4 3 4 4 4 5 5 6 6 6 6 5 6 6 6 6 5 5 5 5 5 5 5 5 5 5 6 6 7 7 7 7 6 6 5 3 4 4 6 8 9 9
5 4 4 4 4 4 4 5 5 6 6 5 6 6 6 6 5 5 5 5 4 5 5 5 5 5 5 6 6 7 7 7 7 6 5 6 5 6 6 6 6 7 7
4 4 3 3 3 3 4 4 5 5 5 6 6 6 7 7 6 6 5 4 4 4 5 5 5 5 5 5 6 6 7 7 7 7 6 6 6 6 7 7 6 6 6
3 3 3 3 3 3 4 4 5 5 6 6 6 6 6 6 6 6 5 5 4 4 5 5 5 5 5 5 5 5 6 7 7 7 7 7 7 6 7 7 6 6 5
3 3 3 3 3 3 4 4 5 6 6 6 6 6 6 5 4 5 5 5 5 5 6 6 6 6 6 5 5 5 5 5 6 7 7 6 7 7 7 7 6 6 6
3 3 3 3 3 3 4 4 5 5 6 6 7 6 6 5 5 5 5 5 5 5 6 6 6 6 6 6 6 5 6 6 6 6 6 7 6 6 6 6 6 7 7
4 4 3 3 4 4 4 4 5 5 6 6 6 6 6 6 6 5 5 5 6 5 6 6 6 6 6 6 6 6 6 6 6 5 6 7 6 6 5 6 6 7 7
5 4 4 4 4 4 4 4 5 5 6 6 6 6 6 6 6 5 5 5 6 6 6 5 6 6 6 6 6 6 6 6 6 6 6 7 7 6 5 5 5 6 7
5 5 5 4 4 4 4 4 5 5 5 6 6 6 6 6 6 5 6 6 5 5 5 5 5 5 6 6 6 6 6 6 6 6 7 7 6 6 6 6 6 6 7
6 6 5 5 5 4 4 5 5 5 5 5 6 6 6 6 6 6 6 5 5 5 5 4 4 4 5 5 5 6 6 6 6 6 6 6 6 6 5 6 6 5 5
7 7 6 6 5 5 5 5 5 5 5 5 5 5 6 6 6 6 5 5 5 5 5 4 4 4 3 3 4 4 5 5 5 5 5 6 6 6 6 5 5 5 5
8 8 7 7 6 5 5 5 5 5 4 5 5 5 6 6 6 5 5 5 5 4 4 4 3 3 2 3 3 3 4 4 4 3 3 3 3 3 3 3 4 4 4
8 8 8 7 7 6 5 5 5 4 4 5 5 5 5 5 5 5 4 4 4 4 3 3 3 3 2 2 3 3 3 3 3 3 3 3 2 2 2 3 4 4 5
9 8 8 7 7 6 6 5 5 4 4 5 5 4 4 5 5 5 4 4 4 4 3 3 3 3 3 3 2 2 2 2 3 3 3 2 2 2 3 3 3 4 4
8 8 7 7 6 6 5 5 4 4 4 4 4 4 4 5 5 4 4 4 3 3 3 3 3 3 3 3 2 2 2 2 2 3 3 3 3 3 3 3 3 3 3
8 7 6 6 5 5 5 4 4 4 4 4 4 4 4 4 4 4 4 4 3 3 3 3 3 3 3 3 2 2 1 1 2 2 2 3 3 3 3 3 3 3 3
7 6 5 5 5 5 5 5 5 5 5 5 5 4 4 4 4 4 4 3 3 3 3 3 2 2 3 3 3 3 1 1 2 2 2 2 3 3 3 3 3 4 4
7 6 5 5 6 5 5 6 6 7 6 5 4 4 4 4 4 4 3 3 3 3 3 2 2 2 3 3 3 3 2 2 3 3 3 2 3 4 4 4 3 4 5
7 6 6 6 5 5 6 7 8 6 5 4 4 4 4 4 3 3 3 3 3 2 2 2 2 2 2 3 3 4 3 3 3 3 3 3 3 4 4 3 3 4 4
8 7 7 6 5 6 7 8 7 5 4 5 5 4 4 4 3 3 3 2 2 2 2 2 2 2 2 2 3 4 4 4 3 3 3 4 4 4 3 2 3 4 3
8 7 6 7 7 6 7 8 6 4 5 5 5 4 4 4 3 3 3 3 2 2 2 2 2 2 2 2 3 3 3 4 3 3 2 3 2 2 2 2 2 2 3
8 7 7 8 8 7 7 7 6 5 6 6 5 4 4 4 4 4 3 4 4 3 3 3 3 3 3 3 4 4 3 3 3 3 2 2 2 2 2 2 2 3 3
8 7 8 8 8 7 7 6 5 6 6 5 5 4 4 3 3 3 3 4 5 4 5 5 4 4 4 5 4 4 4 4 3 2 2 2 2 2 3 3 3 3 3
Wind_Direction
226 242 285 312 324 332 332 331 333 333 332 329 324 316 311 304 293 288 284 283 279 270 258 256 254 249 238 236 235 231 226 224 220 224 231 234 231 229 226 223 225 225 225
229 245 278 304 316 323 328 327 328 326 326 322 316 302 303 301 298 292 289 288 282 272 266 255 251 249 243 238 236 233 230 227 220 221 220 230 232 229 228 223 223 227 227
236 246 265 290 306 316 321 320 320 319 320 319 313 307 302 295 294 300 298 300 293 282 273 265 260 253 245 242 238 232 233 228 223 221 220 219 228 230 222 225 224 225 226
237 249 266 285 298 310 319 320 321 320 320 319 315 313 306 299 296 298 296 300 296 291 283 272 264 256 248 248 241 234 235 231 228 223 230 237 243 229 227 221 222 226 230
232 247 265 281 293 307 318 322 323 323 324 321 316 312 306 299 295 298 298 302 305 305 302 290 278 265 255 252 245 239 234 232 233 229 227 234 238 235 236 238 231 229 231
233 249 268 281 293 312 321 323 324 327 329 325 319 312 307 301 296 297 300 304 307 309 309 299 285 274 267 259 248 240 234 234 235 236 231 227 226 224 231 238 237 239 238
232 249 268 282 294 310 322 325 326 327 330 326 322 317 310 302 295 296 296 299 301 302 304 296 284 271 264 260 253 247 241 235 234 236 236 235 236 237 237 241 244 249 251
231 244 259 274 286 302 315 321 322 323 326 326 323 320 316 308 301 302 300 296 293 294 300 295 283 271 262 256 249 244 244 241 237 239 241 242 244 242 239 237 240 246 251
235 245 258 272 284 294 304 310 313 317 323 324 322 319 319 316 308 303 300 294 293 290 293 294 282 274 264 253 249 241 240 241 242 242 242 243 245 245 245 240 235 237 247
241 248 254 265 277 287 299 304 309 313 316 320 320 319 319 317 312 303 301 300 297 293 290 294 280 270 266 257 245 241 239 239 242 242 241 241 243 243 239 234 233 237 244
252 257 258 264 271 283 294 299 306 309 313 316 317 318 318 317 314 305 302 300 298 299 295 287 284 272 267 261 251 242 240 238 240 239 240 242 244 245 242 238 235 236 241
261 264 259 259 263 274 286 293 298 301 307 310 313 316 318 315 312 306 305 304 303 301 295 286 283 279 272 265 258 248 243 241 242 241 240 243 243 246 245 240 239 240 242
265 263 254 251 256 266 276 284 289 295 302 307 311 315 317 317 314 309 306 307 306 301 298 291 284 282 279 274 263 252 248 246 248 249 247 246 241 243 245 243 243 248 253
269 261 255 251 256 263 269 276 284 290 298 302 306 310 313 318 317 314 310 308 305 301 301 295 286 283 283 286 277 262 256 253 256 254 252 250 245 246 248 244 244 248 251
270 263 257 254 255 259 265 271 278 285 292 295 300 306 312 316 319 321 319 316 312 309 303 297 290 288 288 297 293 283 272 260 259 261 261 257 257 261 256 252 254 249 246
270 267 258 254 253 254 259 265 272 280 284 287 294 304 310 313 315 317 318 318 321 322 322 318 309 298 295 316 309 295 287 278 265 262 263 263 251 245 253 261 267 263 252
274 268 261 252 249 249 248 252 259 266 270 278 289 298 303 305 309 312 317 319 321 322 326 331 329 324 313 305 303 303 288 291 281 267 261 262 268 256 255 261 261 263 268
276 271 264 258 252 248 245 246 248 250 258 270 283 291 294 296 303 307 309 311 311 312 321 324 322 322 333 323 301 306 294 297 308 300 274 263 265 262 261 262 268 276 284
275 271 265 259 251 243 236 236 242 246 253 264 273 280 282 286 293 295 298 300 301 304 312 315 318 322 332 347 341 323 300 302 307 305 303 283 264 278 276 265 268 283 294
276 270 268 258 245 235 222 226 238 243 250 256 262 267 269 273 278 281 286 289 290 293 301 307 310 313 322 347 347 330 301 304 307 310 307 309 298 295 290 272 272 278 292
282 274 264 252 244 226 215 226 237 244 251 254 256 259 261 265 268 272 276 278 278 282 289 296 304 312 325 337 343 342 323 304 302 302 300 305 319 319 314 297 280 280 291
281 271 262 257 246 221 217 231 240 247 248 246 248 250 255 260 262 264 269 268 268 276 281 288 302 317 326 333 338 335 326 316 295 293 297 307 323 319 314 307 301 298 294
278 268 258 258 249 225 220 234 243 238 237 241 244 246 249 251 252 252 254 252 257 266 273 276 288 306 315 318 321 325 323 314 302 299 306 314 319 313 305 307 311 304 295
273 265 255 252 251 236 230 237 238 226 229 238 242 240 242 245 244 243 244 244 245 253 265 272 279 291 299 308 314 311 309 304 296 294 299 306 316 314 318 315 314 303 295
269 257 249 250 252 243 235 233 226 217 225 235 238 234 235 239 238 238 241 243 242 247 255 261 266 276 284 298 312 310 306 305 299 301 298 300 304 311 314 315 323 319 304
266 257 251 250 251 243 237 230 218 214 220 228 231 232 231 235 240 246 255 251 252 256 260 271 275 276 283 303 303 298 300 306 311 301 294 299 302 305 311 313 316 317 316
Height
1509 1508 1507 1506 1505 1504 1502 1500 1498 1496 1494 1492 1490 1488 1486 1485 1484 1483 1483 1482 1483 1483 1484 1484 1485 1486 1487 1489 1491 1493 1494 1495 1498 1499 1500 1501 1502 1503 1504 1505 1507 1508 1509
1506 1506 1505 1504 1503 1501 1499 1497 1495 1493 1491 1489 1487 1485 1483 1482 1481 1480 1479 1479 1479 1479 1479 1480 1481 1481 1483 1484 1486 1487 1489 1490 1492 1494 1495 1496 1498 1497 1498 1499 1501 1502 1503
1504 1503 1503 1502 1501 1499 1497 1495 1493 1491 1489 1487 1484 1482 1480 1479 1478 1477 1476 1475 1475 1475 1475 1476 1476 1477 1478 1479 1480 1482 1484 1485 1487 1489 1490 1490 1490 1492 1493 1493 1495 1496 1497
1501 1501 1500 1499 1498 1496 1495 1493 1490 1488 1486 1484 1482 1480 1478 1476 1474 1473 1472 1472 1472 1471 1471 1471 1472 1473 1474 1474 1475 1477 1478 1480 1481 1483 1484 1485 1485 1487 1487 1488 1489 1490 1491
1498 1498 1497 1497 1495 1494 1492 1490 1488 1486 1484 1482 1479 1477 1475 1473 1472 1470 1469 1469 1468 1468 1467 1468 1468 1469 1469 1470 1471 1472 1473 1475 1476 1477 1478 1479 1480 1482 1483 1483 1484 1484 1485
1495 1495 1494 1494 1492 1491 1489 1487 1486 1484 1481 1479 1477 1475 1472 1470 1469 1467 1466 1465 1464 1464 1464 1464 1464 1464 1465 1465 1466 1467 1468 1469 1470 1472 1473 1474 1475 1476 1478 1478 1478 1478 1479
1492 1492 1491 1491 1490 1488 1487 1485 1483 1481 1479 1476 1474 1472 1470 1468 1466 1464 1463 1462 1461 1460 1460 1460 1460 1460 1460 1460 1461 1462 1463 1464 1465 1466 1467 1468 1470 1472 1473 1473 1473 1474 1474
1490 1489 1489 1488 1487 1486 1485 1483 1481 1479 1476 1474 1472 1469 1467 1465 1463 1462 1460 1459 1458 1457 1456 1456 1455 1455 1456 1456 1456 1457 1458 1458 1459 1461 1462 1463 1464 1466 1467 1468 1469 1469 1469
1487 1487 1487 1486 1485 1484 1482 1480 1478 1476 1474 1471 1469 1467 1464 1462 1461 1459 1458 1456 1455 1454 1453 1452 1451 1451 1451 1451 1451 1452 1453 1454 1454 1455 1456 1458 1459 1460 1461 1462 1463 1465 1464
1485 1485 1484 1483 1482 1481 1480 1478 1476 1473 1471 1469 1466 1464 1462 1460 1458 1456 1455 1453 1452 1451 1449 1448 1447 1447 1446 1446 1447 1447 1448 1449 1449 1450 1451 1452 1453 1454 1456 1456 1457 1458 1459
1483 1482 1482 1481 1480 1478 1477 1475 1473 1471 1468 1466 1463 1461 1459 1457 1455 1453 1451 1449 1448 1447 1445 1444 1443 1443 1442 1442 1442 1442 1443 1444 1444 1445 1446 1447 1448 1449 1450 1450 1451 1451 1453
1480 1479 1479 1478 1476 1475 1474 1472 1470 1467 1465 1463 1460 1458 1456 1453 1451 1449 1448 1446 1444 1443 1442 1441 1440 1439 1438 1438 1438 1438 1438 1439 1439 1440 1441 1441 1442 1443 1444 1445 1445 1445 1446
1477 1476 1475 1474 1473 1472 1470 1468 1466 1464 1462 1460 1457 1455 1452 1450 1448 1446 1444 1443 1441 1440 1439 1437 1437 1436 1435 1434 1434 1434 1434 1434 1435 1435 1436 1436 1437 1438 1439 1439 1439 1440 1440
1473 1472 1471 1470 1469 1468 1466 1465 1463 1461 1459 1457 1454 1452 1449 1447 1445 1443 1441 1440 1438 1436 1435 1434 1433 1432 1431 1431 1430 1430 1430 1430 1430 1430 1431 1432 1432 1433 1433 1433 1434 1434 1435
1469 1468 1467 1466 1465 1464 1463 1461 1460 1458 1456 1453 1451 1449 1447 1444 1442 1440 1438 1436 1435 1433 1432 1431 1430 1429 1428 1427 1427 1426 1426 1426 1426 1426 1426 1427 1427 1427 1428 1429 1429 1429 1429
1465 1463 1462 1462 1461 1460 1459 1457 1456 1454 1452 1450 1448 1446 1444 1441 1439 1437 1435 1434 1432 1430 1428 1427 1426 1425 1425 1424 1423 1423 1422 1422 1422 1422 1422 1423 1423 1423 1423 1424 1424 1425 1425
1460 1459 1458 1457 1457 1456 1455 1454 1452 1451 1449 1447 1445 1443 1441 1439 1436 1435 1433 1431 1429 1427 1426 1424 1423 1422 1421 1421 1421 1420 1419 1419 1418 1419 1419 1419 1419 1419 1419 1419 1419 1420 1420
1457 1455 1454 1453 1453 1452 1451 1450 1449 1447 1446 1444 1442 1440 1438 1436 1434 1432 1430 1429 1427 1426 1424 1422 1421 1419 1418 1418 1418 1417 1417 1416 1416 1415 1415 1415 1415 1415 1415 1415 1414 1414 1415
1453 1452 1451 1450 1449 1448 1447 1446 1445 1444 1442 1441 1439 1437 1435 1434 1432 1430 1428 1427 1425 1424 1422 1421 1419 1417 1417 1416 1416 1415 1414 1414 1413 1413 1413 1412 1412 1411 1411 1411 1410 1410 1411
1449 1448 1446 1445 1444 1444 1443 1442 1441 1440 1439 1437 1436 1434 1433 1431 1429 1428 1427 1425 1424 1422 1421 1419 1418 1416 1416 1415 1414 1414 1413 1412 1411 1411 1410 1409 1408 1408 1408 1408 1407 1406 1406
1445 1443 1442 1441 1440 1440 1439 1438 1437 1436 1436 1434 1433 1431 1430 1429 1427 1426 1425 1423 1422 1420 1419 1417 1416 1415 1414 1413 1413 1412 1411 1410 1409 1408 1407 1406 1405 1405 1404 1404 1403 1403 1403
1440 1439 1438 1437 1436 1435 1434 1433 1433 1433 1432 1431 1429 1428 1427 1426 1425 1424 1422 1421 1420 1418 1417 1416 1414 1413 1412 1412 1411 1410 1409 1408 1407 1406 1405 1404 1403 1402 1401 1400 1400 1399 1399
1436 1434 1433 1432 1431 1431 1430 1430 1429 1429 1428 1427 1426 1425 1424 1423 1422 1421 1420 1418 1417 1416 1415 1414 1412 1411 1411 1410 1409 1408 1407 1406 1404 1403 1402 1401 1400 1399 1398 1397 1396 1396 1395
1431 1430 1428 1427 1426 1426 1426 1425 1425 1424 1423 1423 1422 1421 1420 1419 1419 1418 1417 1416 1415 1414 1413 1412 1411 1410 1409 1408 1407 1406 1404 1403 1402 1400 1399 1398 1397 1396 1395 1394 1393 1392 1391
1425 1424 1423 1422 1422 1421 1421 1421 1420 1420 1419 1419 1418 1417 1417 1416 1415 1415 1414 1413 1412 1411 1411 1410 1409 1407 1406 1406 1405 1403 1402 1400 1399 1398 1396 1395 1394 1393 1392 1391 1390 1389 1387
1420 1418 1418 1417 1417 1417 1416 1416 1416 1415 1415 1415 1414 1414 1413 1412 1412 1411 1410 1409 1409 1408 1407 1407 1406 1405 1404 1403 1402 1400 1399 1398 1397 1396 1394 1393 1392 1391 1389 1388 1387 1385 1384